Volver al catálogo

STARLINK-11311

ActivoComunicacionesVLEO
NORAD 61253·PAYLOAD·🇺🇸 United States

Lanzado Sep 25, 2024 desde Vandenberg Space Force Base

Loading…

Próximos Pases (próximas 24 horas)

TLE

ActualizadoSource: CelesTrak SupGP

Época: Sep 14, 2026, 22:11 UTC

1 61253C 24175L   26257.92479167  .00032672  00000+0  26898-3 0  2575
2 61253  53.1573 203.5922 0001365  94.5835 328.2674 15.69705965    11

Sigue STARLINK-11311 en tiempo real con AllMySat

Download on the App Store